| time (UTC) | temp F | wind direction | speed knots | gust knots | rain 1hr in | rain 24hr in | rain mn in | humidity % | barometer mb |
| 20260506124147 | 54 | 330 | 3.5 | 6.1 | 0.00 | 0.00 | 0.00 | 78 | 1012.9 |
| 20260506123645 | 55 | 304 | 7.0 | 12.2 | 0.00 | 0.00 | 0.00 | 77 | 1013.0 |
| 20260506123144 | 55 | 337 | 2.6 | 9.6 | 0.00 | 0.00 | 0.00 | 77 | 1012.6 |
| 20260506122640 | 55 | 335 | 4.3 | 6.1 | 0.00 | 0.00 | 0.00 | 77 | 1012.6 |
| 20260506122138 | 55 | 341 | 4.3 | 6.1 | 0.00 | 0.00 | 0.00 | 77 | 1012.6 |
| 20260506121635 | 55 | 336 | 2.6 | 3.5 | 0.00 | 0.00 | 0.00 | 76 | 1012.8 |
| 20260506121131 | 55 | 71 | 4.3 | 7.0 | 0.00 | 0.00 | 0.00 | 76 | 1012.5 |
| 20260506120630 | 55 | 297 | 1.7 | 8.7 | 0.00 | 0.00 | 0.00 | 76 | 1012.5 |
| 20260506120126 | 55 | 26 | 2.6 | 3.5 | 0.00 | 0.00 | 0.00 | 76 | 1012.5 |
| 20260506115625 | 55 | 348 | 5.2 | 11.3 | 0.00 | 0.00 | 0.00 | 75 | 1012.4 |
| 20260506115123 | 55 | 72 | 2.6 | 8.7 | 0.00 | 0.00 | 0.00 | 76 | 1012.4 |
| 20260506114619 | 55 | 346 | 5.2 | 7.8 | 0.00 | 0.00 | 0.00 | 75 | 1012.0 |
| 20260506114118 | 56 | 316 | 5.2 | 7.8 | 0.00 | 0.00 | 0.00 | 75 | 1011.9 |
| 20260506113616 | 56 | 285 | 4.3 | 5.2 | 0.00 | 0.00 | 0.00 | 75 | 1012.2 |
| 20260506113113 | 56 | 327 | 3.5 | 5.2 | 0.00 | 0.00 | 0.00 | 75 | 1011.9 |
| 20260506112609 | 56 | 321 | 7.0 | 7.8 | 0.00 | 0.00 | 0.00 | 74 | 1011.7 |
| 20260506112107 | 56 | 307 | 3.5 | 6.1 | 0.00 | 0.00 | 0.00 | 74 | 1011.6 |
| 20260506111604 | 56 | 288 | 4.3 | 9.6 | 0.00 | 0.00 | 0.00 | 73 | 1011.9 |
| 20260506111102 | 56 | 317 | 3.5 | 7.8 | 0.00 | 0.00 | 0.00 | 73 | 1011.7 |
| 20260506110559 | 57 | 43 | 3.5 | 9.6 | 0.00 | 0.00 | 0.00 | 73 | 1011.7 |
| 20260506110056 | 57 | 292 | 6.1 | 7.8 | 0.00 | 0.00 | 0.00 | 73 | 1011.5 |
| 20260506105552 | 57 | 5 | 2.6 | 11.3 | 0.00 | 0.00 | 0.00 | 73 | 1011.4 |
| 20260506105050 | 57 | 353 | 3.5 | 7.8 | 0.00 | 0.00 | 0.00 | 73 | 1011.1 |
| 20260506104548 | 57 | 312 | 3.5 | 7.8 | 0.00 | 0.00 | 0.00 | 73 | 1011.3 |
| 20260506104045 | 57 | 333 | 7.8 | 9.6 | 0.00 | 0.00 | 0.00 | 73 | 1011.2 |
| 20260506103542 | 57 | 311 | 3.5 | 7.8 | 0.00 | 0.00 | 0.00 | 73 | 1011.1 |
| 20260506103039 | 57 | 335 | 5.2 | 7.8 | 0.00 | 0.00 | 0.00 | 73 | 1010.8 |
| 20260506102537 | 57 | 294 | 5.2 | 7.0 | 0.00 | 0.00 | 0.00 | 72 | 1010.9 |
| 20260506102034 | 57 | 46 | 5.2 | 6.1 | 0.00 | 0.00 | 0.00 | 72 | 1010.7 |
| 20260506101531 | 57 | 297 | 3.5 | 5.2 | 0.00 | 0.00 | 0.00 | 72 | 1010.7 |
| 20260506101028 | 57 | 305 | 2.6 | 3.5 | 0.00 | 0.00 | 0.00 | 72 | 1010.8 |
| 20260506100526 | 57 | 19 | 1.7 | 7.0 | 0.00 | 0.00 | 0.00 | 72 | 1010.7 |
| 20260506100024 | 57 | 336 | 3.5 | 3.5 | 0.00 | 0.00 | 0.00 | 71 | 1010.5 |
| 20260506095523 | 58 | 316 | 2.6 | 6.1 | 0.00 | 0.00 | 0.00 | 72 | 1010.4 |
| 20260506095018 | 57 | 326 | 0.9 | 5.2 | 0.00 | 0.00 | 0.00 | 72 | 1010.5 |
| 20260506094517 | 58 | 295 | 1.7 | 7.8 | 0.00 | 0.00 | 0.00 | 72 | 1010.5 |
| 20260506094014 | 57 | 307 | 1.7 | 5.2 | 0.00 | 0.00 | 0.00 | 72 | 1010.2 |
| 20260506093512 | 58 | 348 | 4.3 | 6.1 | 0.00 | 0.00 | 0.00 | 71 | 1010.3 |
| 20260506093009 | 58 | 10 | 3.5 | 7.0 | 0.00 | 0.00 | 0.00 | 72 | 1010.1 |
| 20260506092507 | 58 | 282 | 2.6 | 6.1 | 0.00 | 0.00 | 0.00 | 71 | 1010.2 |
| 20260506092003 | 58 | 329 | 5.2 | 7.8 | 0.00 | 0.00 | 0.00 | 71 | 1010.1 |
| 20260506091502 | 58 | 327 | 4.3 | 7.0 | 0.00 | 0.00 | 0.00 | 72 | 1009.8 |
| 20260506090959 | 58 | 300 | 2.6 | 5.2 | 0.00 | 0.00 | 0.00 | 72 | 1010.2 |
| 20260506090457 | 58 | 327 | 3.5 | 5.2 | 0.00 | 0.00 | 0.00 | 72 | 1010.2 |
| 20260506085953 | 58 | 36 | 3.5 | 7.0 | 0.00 | 0.00 | 0.00 | 72 | 1010.0 |
| 20260506085450 | 58 | 310 | 2.6 | 7.0 | 0.00 | 0.00 | 0.00 | 72 | 1009.9 |
| 20260506084946 | 58 | 289 | 4.3 | 7.0 | 0.00 | 0.00 | 0.00 | 72 | 1010.0 |
| 20260506084443 | 58 | 336 | 3.5 | 7.0 | 0.00 | 0.00 | 0.00 | 72 | 1009.9 |
| 20260506083939 | 58 | 315 | 3.5 | 5.2 | 0.00 | 0.00 | 0.00 | 72 | 1010.0 |
| 20260506083437 | 59 | 298 | 3.5 | 6.1 | 0.00 | 0.00 | 0.00 | 72 | 1009.7 |
| 20260506082934 | 59 | 324 | 1.7 | 3.5 | 0.00 | 0.00 | 0.00 | 72 | 1009.8 |
| 20260506082431 | 59 | 328 | 3.5 | 5.2 | 0.00 | 0.00 | 0.00 | 72 | 1009.9 |
| 20260506081926 | 59 | 9 | 2.6 | 5.2 | 0.00 | 0.00 | 0.00 | 72 | 1009.8 |
| 20260506081425 | 59 | 330 | 1.7 | 2.6 | 0.00 | 0.00 | 0.00 | 72 | 1009.6 |
| 20260506080922 | 59 | 315 | 3.5 | 6.1 | 0.00 | 0.00 | 0.00 | 72 | 1009.9 |
| 20260506080418 | 59 | 306 | 1.7 | 2.6 | 0.00 | 0.00 | 0.00 | 72 | 1009.5 |
| 20260506073403 | 59 | 328 | 1.7 | 2.6 | 0.00 | 0.00 | 0.00 | 73 | 1009.2 |
| 20260506072859 | 59 | 7 | 3.5 | 5.2 | 0.00 | 0.00 | 0.00 | 74 | 1009.5 |
| 20260506072357 | 59 | 303 | 3.5 | 6.1 | 0.00 | 0.00 | 0.00 | 74 | 1009.4 |
| 20260506071854 | 59 | 325 | 3.5 | 6.1 | 0.00 | 0.00 | 0.00 | 74 | 1009.3 |
| 20260506071352 | 60 | 304 | 2.6 | 7.0 | 0.00 | 0.00 | 0.00 | 73 | 1009.5 |
| 20260506070849 | 60 | 307 | 2.6 | 5.2 | 0.00 | 0.00 | 0.00 | 74 | 1009.8 |
| 20260506070346 | 60 | 292 | 4.3 | 5.2 | 0.00 | 0.00 | 0.00 | 73 | 1009.4 |
| 20260506062323 | 60 | 42 | 5.2 | 8.7 | 0.00 | 0.00 | 0.00 | 73 | 1009.3 |
| 20260506061819 | 61 | 333 | 3.5 | 8.7 | 0.00 | 0.00 | 0.00 | 73 | 1009.4 |
| 20260506061316 | 61 | 24 | 4.3 | 5.2 | 0.00 | 0.00 | 0.00 | 73 | 1009.5 |
| 20260506060814 | 61 | 307 | 3.5 | 7.0 | 0.00 | 0.00 | 0.00 | 73 | 1009.6 |
| 20260506060312 | 61 | 0 | 4.3 | 7.8 | 0.00 | 0.00 | 0.00 | 73 | 1009.5 |
| 20260506051243 | 62 | 35 | 5.2 | 8.7 | 0.00 | 0.00 | 0.00 | 76 | 1009.4 |
| 20260506050741 | 62 | 4 | 3.5 | 7.8 | 0.00 | 0.00 | 0.00 | 76 | 1009.4 |
| 20260506050238 | 63 | 296 | 4.3 | 7.0 | 0.00 | 0.00 | 0.00 | 76 | 1009.3 |
| 20260506044729 | 63 | 340 | 4.3 | 6.1 | 0.00 | 0.00 | 0.00 | 76 | 1009.3 |
| 20260506044226 | 63 | 308 | 4.3 | 8.7 | 0.00 | 0.00 | 0.00 | 76 | 1009.3 |
| 20260506043724 | 64 | 324 | 5.2 | 8.7 | 0.00 | 0.00 | 0.00 | 75 | 1009.3 |
| 20260506043221 | 64 | 294 | 4.3 | 6.1 | 0.00 | 0.00 | 0.00 | 75 | 1009.3 |
| 20260506042720 | 64 | 344 | 7.8 | 8.7 | 0.00 | 0.00 | 0.00 | 75 | 1009.3 |
| 20260506042218 | 64 | 303 | 3.5 | 8.7 | 0.00 | 0.00 | 0.00 | 75 | 1009.1 |
| 20260506041716 | 64 | 327 | 5.2 | 7.8 | 0.00 | 0.00 | 0.00 | 75 | 1008.9 |
| 20260506041213 | 64 | 341 | 5.2 | 11.3 | 0.00 | 0.00 | 0.00 | 75 | 1009.0 |
| 20260506040710 | 64 | 359 | 5.2 | 11.3 | 0.00 | 0.00 | 0.00 | 75 | 1009.1 |
| 20260506040207 | 64 | 309 | 3.5 | 9.6 | 0.00 | 0.00 | 0.00 | 75 | 1009.0 |
| 20260506035704 | 65 | 333 | 5.2 | 9.6 | 0.00 | 0.00 | 0.00 | 75 | 1008.5 |
| 20260506035201 | 65 | 314 | 1.7 | 6.1 | 0.00 | 0.00 | 0.00 | 75 | 1008.3 |
| 20260506034657 | 65 | 332 | 7.0 | 9.6 | 0.00 | 0.00 | 0.00 | 74 | 1008.3 |
| 20260506034155 | 66 | 325 | 5.2 | 7.0 | 0.00 | 0.00 | 0.00 | 74 | 1008.4 |
| 20260506033652 | 66 | 292 | 3.5 | 7.8 | 0.00 | 0.00 | 0.00 | 74 | 1008.4 |
| 20260506033149 | 66 | 5 | 5.2 | 7.0 | 0.00 | 0.00 | 0.00 | 74 | 1008.1 |
| 20260506032646 | 66 | 330 | 6.1 | 12.2 | 0.00 | 0.00 | 0.00 | 74 | 1008.3 |
| 20260506032143 | 67 | 299 | 1.7 | 6.1 | 0.00 | 0.00 | 0.00 | 74 | 1008.1 |
| 20260506031640 | 67 | 15 | 6.1 | 9.6 | 0.00 | 0.00 | 0.00 | 74 | 1007.9 |
| 20260506031137 | 68 | 332 | 7.0 | 12.2 | 0.00 | 0.00 | 0.00 | 74 | 1007.9 |
| 20260506030636 | 68 | 323 | 3.5 | 7.0 | 0.00 | 0.00 | 0.00 | 73 | 1007.8 |
| 20260506030132 | 69 | 4 | 5.2 | 6.1 | 0.00 | 0.00 | 0.00 | 73 | 1007.6 |
| 20260506025629 | 69 | 295 | 5.2 | 7.0 | 0.00 | 0.00 | 0.00 | 72 | 1007.7 |
| 20260506025125 | 69 | 309 | 5.2 | 12.2 | 0.00 | 0.00 | 0.00 | 72 | 1007.8 |
| 20260506024623 | 70 | 288 | 3.5 | 8.7 | 0.00 | 0.00 | 0.00 | 72 | 1007.5 |
| 20260506024118 | 70 | 2 | 3.5 | 6.1 | 0.00 | 0.00 | 0.00 | 72 | 1007.3 |
| 20260506023615 | 70 | 334 | 3.5 | 8.7 | 0.00 | 0.00 | 0.00 | 71 | 1007.0 |
| 20260506023112 | 70 | 45 | 4.3 | 9.6 | 0.00 | 0.00 | 0.00 | 71 | 1006.9 |
| 20260506022610 | 70 | 293 | 3.5 | 7.8 | 0.00 | 0.00 | 0.00 | 71 | 1006.9 |
| 20260506022107 | 71 | 26 | 5.2 | 7.8 | 0.00 | 0.00 | 0.00 | 72 | 1006.7 |
| 20260506021605 | 71 | 350 | 2.6 | 3.5 | 0.00 | 0.00 | 0.00 | 73 | 1006.5 |
| 20260506021102 | 71 | 337 | 3.5 | 7.0 | 0.00 | 0.00 | 0.00 | 72 | 1006.5 |
| 20260506020559 | 71 | 292 | 1.7 | 5.2 | 0.00 | 0.00 | 0.00 | 72 | 1006.4 |
| 20260506020056 | 71 | 331 | 2.6 | 6.1 | 0.00 | 0.00 | 0.00 | 71 | 1006.3 |
| 20260506015554 | 71 | 344 | 5.2 | 7.0 | 0.00 | 0.00 | 0.00 | 71 | 1006.0 |
| 20260506015050 | 71 | 316 | 2.6 | 5.2 | 0.00 | 0.00 | 0.00 | 71 | 1005.9 |
| 20260506014548 | 72 | 316 | 2.6 | 5.2 | 0.00 | 0.00 | 0.00 | 70 | 1006.0 |
| 20260506014049 | 72 | 303 | 2.6 | 6.1 | 0.00 | 0.00 | 0.00 | 69 | 1006.1 |
| 20260506013547 | 72 | 277 | 3.5 | 5.2 | 0.00 | 0.00 | 0.00 | 69 | 1005.9 |
| 20260506013044 | 73 | 270 | 3.5 | 6.1 | 0.00 | 0.00 | 0.00 | 69 | 1005.7 |
| 20260506012540 | 73 | 307 | 2.6 | 3.5 | 0.00 | 0.00 | 0.00 | 68 | 1005.8 |
| 20260506012037 | 73 | 332 | 1.7 | 3.5 | 0.00 | 0.00 | 0.00 | 68 | 1005.6 |
| 20260506011535 | 73 | 353 | 2.6 | 6.1 | 0.00 | 0.00 | 0.00 | 67 | 1005.5 |
| 20260506011031 | 73 | 314 | 1.7 | 2.6 | 0.00 | 0.00 | 0.00 | 67 | 1005.8 |
| 20260506010531 | 74 | 315 | 2.6 | 6.1 | 0.00 | 0.00 | 0.00 | 66 | 1005.8 |
| 20260506010026 | 74 | 268 | 2.6 | 3.5 | 0.00 | 0.00 | 0.00 | 66 | 1005.6 |
| 20260506005524 | 74 | 328 | 2.6 | 3.5 | 0.00 | 0.00 | 0.00 | 66 | 1005.3 |
| 20260506005019 | 74 | 4 | 3.5 | 7.0 | 0.00 | 0.00 | 0.00 | 66 | 1005.5 |
| 20260506004517 | 74 | 327 | 2.6 | 6.1 | 0.00 | 0.00 | 0.00 | 67 | 1004.7 |
| 20260506004013 | 75 | 317 | 5.2 | 6.1 | 0.00 | 0.00 | 0.00 | 66 | 1005.2 |
| 20260506003510 | 75 | 313 | 4.3 | 7.8 | 0.00 | 0.00 | 0.00 | 66 | 1005.1 |
| 20260506003006 | 75 | 301 | 1.7 | 7.0 | 0.00 | 0.00 | 0.00 | 67 | 1005.1 |
| 20260506002502 | 75 | 321 | 6.1 | 8.7 | 0.00 | 0.00 | 0.00 | 66 | 1004.8 |
| 20260506001958 | 76 | 270 | 4.3 | 7.8 | 0.00 | 0.00 | 0.00 | 66 | 1004.7 |
| 20260506001454 | 76 | 291 | 2.6 | 5.2 | 0.00 | 0.00 | 0.00 | 65 | 1004.8 |
| 20260506000952 | 77 | 336 | 5.2 | 7.0 | 0.00 | 0.00 | 0.00 | 65 | 1004.5 |
| 20260506000449 | 77 | 320 | 2.6 | 11.3 | 0.00 | 0.00 | 0.00 | 64 | 1004.6 |
| 20260505235946 | 78 | 282 | 3.5 | 11.3 | 0.00 | 0.00 | 0.00 | 63 | 1004.4 |
| 20260505235444 | 79 | 346 | 5.2 | 7.0 | 0.00 | 0.00 | 0.00 | 62 | 1004.5 |
| 20260505234941 | 79 | 45 | 4.3 | 8.7 | 0.00 | 0.00 | 0.00 | 62 | 1004.3 |
| 20260505234438 | 79 | 351 | 4.3 | 5.2 | 0.00 | 0.00 | 0.00 | 62 | 1004.4 |
| 20260505233935 | 80 | 308 | 2.6 | 6.1 | 0.00 | 0.00 | 0.00 | 62 | 1003.9 |
| 20260505233433 | 80 | 330 | 5.2 | 7.8 | 0.00 | 0.00 | 0.00 | 62 | 1004.2 |
| 20260505232930 | 80 | 342 | 5.2 | 9.6 | 0.00 | 0.00 | 0.00 | 61 | 1004.3 |
| 20260505232428 | 81 | 325 | 3.5 | 11.3 | 0.00 | 0.00 | 0.00 | 61 | 1004.1 |
| 20260505231924 | 83 | 301 | 7.0 | 9.6 | 0.00 | 0.00 | 0.00 | 59 | 1003.8 |
| 20260505231422 | 84 | 320 | 3.5 | 9.6 | 0.00 | 0.00 | 0.00 | 55 | 1003.8 |
| 20260505230920 | 84 | 294 | 7.8 | 7.8 | 0.00 | 0.00 | 0.00 | 54 | 1003.6 |
| 20260505230417 | 84 | 295 | 3.5 | 7.8 | 0.00 | 0.00 | 0.00 | 54 | 1003.6 |
| 20260505225914 | 84 | 326 | 2.6 | 7.0 | 0.00 | 0.00 | 0.00 | 52 | 1003.5 |
| 20260505225411 | 85 | 307 | 4.3 | 7.8 | 0.00 | 0.00 | 0.00 | 51 | 1003.4 |
| 20260505224906 | 86 | 319 | 4.3 | 7.0 | 0.00 | 0.00 | 0.00 | 50 | 1003.3 |
| 20260505224404 | 86 | 324 | 2.6 | 5.2 | 0.00 | 0.00 | 0.00 | 49 | 1003.5 |
| 20260505223900 | 87 | 329 | 4.3 | 7.8 | 0.00 | 0.00 | 0.00 | 47 | 1003.3 |
| 20260505223357 | 87 | 319 | 4.3 | 7.8 | 0.00 | 0.00 | 0.00 | 46 | 1003.4 |
| 20260505222853 | 88 | 294 | 5.2 | 7.8 | 0.00 | 0.00 | 0.00 | 45 | 1002.9 |
| 20260505222350 | 91 | 313 | 4.3 | 5.2 | 0.00 | 0.00 | 0.00 | 44 | 1003.0 |
| 20260505221847 | 92 | 259 | 1.7 | 3.5 | 0.00 | 0.00 | 0.00 | 47 | 1002.7 |
| 20260505221343 | 92 | 319 | 1.7 | 2.6 | 0.00 | 0.00 | 0.00 | 46 | 1002.8 |
| 20260505220840 | 92 | 264 | 0.0 | 0.9 | 0.00 | 0.00 | 0.00 | 47 | 1002.6 |
| 20260505220337 | 92 | 212 | 0.0 | 1.7 | 0.00 | 0.00 | 0.00 | 46 | 1002.7 |
| 20260505215835 | 94 | 269 | 1.7 | 1.7 | 0.00 | 0.00 | 0.00 | 45 | 1002.7 |
| 20260505215333 | 92 | 270 | 0.9 | 0.9 | 0.00 | 0.00 | 0.00 | 46 | 1002.8 |
| 20260505214831 | 92 | 173 | 2.6 | 6.1 | 0.00 | 0.00 | 0.00 | 47 | 1002.9 |
| 20260505214328 | 92 | 239 | 0.9 | 1.7 | 0.00 | 0.00 | 0.00 | 47 | 1003.1 |
| 20260505213825 | 93 | 253 | 0.9 | 1.7 | 0.00 | 0.00 | 0.00 | 47 | 1003.0 |
| 20260505213323 | 94 | 179 | 3.5 | 3.5 | 0.00 | 0.00 | 0.00 | 45 | 1002.8 |
| 20260505212819 | 93 | 195 | 0.0 | 2.6 | 0.00 | 0.00 | 0.00 | 46 | 1002.9 |
| 20260505212316 | 92 | 163 | 3.5 | 3.5 | 0.00 | 0.00 | 0.00 | 47 | 1003.0 |
| 20260505211812 | 92 | 188 | 2.6 | 7.0 | 0.00 | 0.00 | 0.00 | 49 | 1003.2 |
| 20260505211310 | 91 | 166 | 3.5 | 8.7 | 0.00 | 0.00 | 0.00 | 50 | 1003.0 |
| 20260505210806 | 92 | 182 | 1.7 | 5.2 | 0.00 | 0.00 | 0.00 | 50 | 1003.2 |
| 20260505210303 | 92 | 134 | 1.7 | 2.6 | 0.00 | 0.00 | 0.00 | 50 | 1003.4 |
| 20260505205800 | 91 | 193 | 2.6 | 5.2 | 0.00 | 0.00 | 0.00 | 51 | 1003.3 |
| 20260505205259 | 90 | 176 | 2.6 | 5.2 | 0.00 | 0.00 | 0.00 | 53 | 1003.3 |
| 20260505204754 | 90 | 142 | 3.5 | 6.1 | 0.00 | 0.00 | 0.00 | 52 | 1003.4 |
| 20260505204253 | 89 | 137 | 2.6 | 5.2 | 0.00 | 0.00 | 0.00 | 53 | 1003.5 |
| 20260505203749 | 91 | 193 | 5.2 | 7.8 | 0.00 | 0.00 | 0.00 | 52 | 1003.8 |
| 20260505203246 | 90 | 140 | 5.2 | 7.0 | 0.00 | 0.00 | 0.00 | 52 | 1003.5 |
| 20260505202742 | 90 | 237 | 2.6 | 8.7 | 0.00 | 0.00 | 0.00 | 53 | 1003.8 |
| 20260505202239 | 90 | 189 | 3.5 | 6.1 | 0.00 | 0.00 | 0.00 | 53 | 1003.8 |
| 20260505201735 | 90 | 231 | 1.7 | 7.8 | 0.00 | 0.00 | 0.00 | 52 | 1003.9 |
| 20260505201233 | 91 | 148 | 6.1 | 9.6 | 0.00 | 0.00 | 0.00 | 52 | 1003.8 |
| 20260505200731 | 90 | 10 | 2.6 | 2.6 | 0.00 | 0.00 | 0.00 | 53 | 1003.8 |
| 20260505200228 | 90 | 192 | 3.5 | 6.1 | 0.00 | 0.00 | 0.00 | 54 | 1003.9 |
| 20260505195723 | 90 | 183 | 1.7 | 2.6 | 0.00 | 0.00 | 0.00 | 53 | 1003.9 |
| 20260505195221 | 89 | 190 | 1.7 | 7.0 | 0.00 | 0.00 | 0.00 | 54 | 1003.9 |
| 20260505194718 | 89 | 222 | 1.7 | 7.8 | 0.00 | 0.00 | 0.00 | 55 | 1003.9 |
| 20260505194214 | 88 | 196 | 3.5 | 3.5 | 0.00 | 0.00 | 0.00 | 55 | 1004.0 |
| 20260505193710 | 89 | 216 | 3.5 | 7.8 | 0.00 | 0.00 | 0.00 | 54 | 1004.1 |
| 20260505193208 | 89 | 134 | 4.3 | 7.0 | 0.00 | 0.00 | 0.00 | 54 | 1004.2 |
| 20260505192707 | 88 | 182 | 1.7 | 2.6 | 0.00 | 0.00 | 0.00 | 55 | 1004.0 |
| 20260505192203 | 87 | 162 | 3.5 | 7.8 | 0.00 | 0.00 | 0.00 | 56 | 1003.9 |
| 20260505191702 | 87 | 173 | 1.7 | 7.0 | 0.00 | 0.00 | 0.00 | 57 | 1004.0 |
| 20260505191200 | 86 | 240 | 2.6 | 7.0 | 0.00 | 0.00 | 0.00 | 58 | 1003.9 |
| 20260505190656 | 86 | 201 | 5.2 | 7.8 | 0.00 | 0.00 | 0.00 | 58 | 1004.0 |
| 20260505190155 | 87 | 175 | 4.3 | 7.0 | 0.00 | 0.00 | 0.00 | 58 | 1004.1 |
| 20260505185652 | 86 | 196 | 1.7 | 7.8 | 0.00 | 0.00 | 0.00 | 59 | 1004.1 |
| 20260505185149 | 86 | 246 | 6.1 | 7.8 | 0.00 | 0.00 | 0.00 | 58 | 1004.1 |
| 20260505184645 | 86 | 227 | 5.2 | 7.0 | 0.00 | 0.00 | 0.00 | 59 | 1004.3 |
| 20260505184142 | 86 | 222 | 4.3 | 6.1 | 0.00 | 0.00 | 0.00 | 59 | 1004.4 |
| 20260505183639 | 85 | 233 | 5.2 | 7.0 | 0.00 | 0.00 | 0.00 | 59 | 1004.3 |
| 20260505183137 | 84 | 148 | 8.7 | 9.6 | 0.00 | 0.00 | 0.00 | 61 | 1004.2 |
| 20260505182633 | 85 | 140 | 6.1 | 8.7 | 0.00 | 0.00 | 0.00 | 61 | 1004.2 |
| 20260505182130 | 86 | 206 | 5.2 | 7.0 | 0.00 | 0.00 | 0.00 | 59 | 1004.3 |
| 20260505181626 | 85 | 233 | 7.0 | 12.2 | 0.00 | 0.00 | 0.00 | 58 | 1004.4 |
| 20260505181124 | 85 | 190 | 7.0 | 13.9 | 0.00 | 0.00 | 0.00 | 60 | 1004.2 |
| 20260505180620 | 85 | 204 | 4.3 | 6.1 | 0.00 | 0.00 | 0.00 | 61 | 1004.4 |
| 20260505180117 | 85 | 187 | 3.5 | 6.1 | 0.00 | 0.00 | 0.00 | 60 | 1004.3 |
| 20260505175613 | 85 | 207 | 4.3 | 7.8 | 0.00 | 0.00 | 0.00 | 61 | 1004.4 |
| 20260505175110 | 85 | 137 | 6.1 | 11.3 | 0.00 | 0.00 | 0.00 | 61 | 1004.3 |
| 20260505174606 | 85 | 237 | 2.6 | 7.8 | 0.00 | 0.00 | 0.00 | 62 | 1004.1 |
| 20260505174102 | 84 | 189 | 3.5 | 7.8 | 0.00 | 0.00 | 0.00 | 63 | 1004.1 |
| 20260505173559 | 84 | 178 | 3.5 | 12.2 | 0.00 | 0.00 | 0.00 | 63 | 1004.3 |
| 20260505173056 | 84 | 191 | 2.6 | 6.1 | 0.00 | 0.00 | 0.00 | 62 | 1004.3 |
| 20260505172554 | 84 | 187 | 0.9 | 8.7 | 0.00 | 0.00 | 0.00 | 62 | 1004.5 |
| 20260505172050 | 84 | 159 | 6.1 | 7.0 | 0.00 | 0.00 | 0.00 | 63 | 1004.2 |
| 20260505171545 | 83 | 220 | 1.7 | 7.0 | 0.00 | 0.00 | 0.00 | 63 | 1004.4 |
| 20260505171042 | 83 | 171 | 3.5 | 8.7 | 0.00 | 0.00 | 0.00 | 65 | 1004.3 |
| 20260505170539 | 82 | 172 | 4.3 | 7.8 | 0.00 | 0.00 | 0.00 | 66 | 1004.6 |
| 20260505170036 | 82 | 134 | 7.0 | 8.7 | 0.00 | 0.00 | 0.00 | 66 | 1004.5 |
| 20260505165531 | 82 | 145 | 5.2 | 9.6 | 0.00 | 0.00 | 0.00 | 66 | 1004.5 |
| 20260505165026 | 82 | 255 | 1.7 | 7.0 | 0.00 | 0.00 | 0.00 | 66 | 1004.6 |
| 20260505164523 | 82 | 129 | 3.5 | 9.6 | 0.00 | 0.00 | 0.00 | 67 | 1004.4 |
| 20260505164021 | 82 | 149 | 2.6 | 8.7 | 0.00 | 0.00 | 0.00 | 68 | 1004.3 |
| 20260505163519 | 81 | 181 | 3.5 | 7.0 | 0.00 | 0.00 | 0.00 | 68 | 1004.4 |
| 20260505163015 | 81 | 212 | 7.8 | 11.3 | 0.00 | 0.00 | 0.00 | 69 | 1004.5 |
| 20260505162509 | 81 | 161 | 5.2 | 8.7 | 0.00 | 0.00 | 0.00 | 69 | 1004.4 |
| 20260505162006 | 81 | 204 | 5.2 | 9.6 | 0.00 | 0.00 | 0.00 | 69 | 1004.3 |
| 20260505161502 | 80 | 173 | 6.1 | 9.6 | 0.00 | 0.00 | 0.00 | 70 | 1004.4 |
| 20260505160959 | 80 | 174 | 7.0 | 11.3 | 0.00 | 0.00 | 0.00 | 70 | 1004.4 |
| 20260505160458 | 79 | 171 | 7.0 | 11.3 | 0.00 | 0.00 | 0.00 | 71 | 1004.5 |
| 20260505152934 | 78 | 191 | 4.3 | 8.7 | 0.00 | 0.00 | 0.00 | 74 | 1004.3 |
| 20260505152431 | 78 | 178 | 2.6 | 5.2 | 0.00 | 0.00 | 0.00 | 74 | 1004.2 |
| 20260505151932 | 77 | 194 | 7.0 | 9.6 | 0.00 | 0.00 | 0.00 | 74 | 1004.2 |
| 20260505151427 | 77 | 146 | 7.8 | 11.3 | 0.00 | 0.00 | 0.00 | 74 | 1004.1 |
| 20260505150925 | 78 | 165 | 3.5 | 7.0 | 0.00 | 0.00 | 0.00 | 74 | 1004.0 |
| 20260505150422 | 77 | 204 | 3.5 | 6.1 | 0.00 | 0.00 | 0.00 | 75 | 1004.6 |
| 20260505140352 | 73 | 171 | 5.2 | 11.3 | 0.00 | 0.00 | 0.00 | 80 | 1004.1 |
| 20260505124805 | 71 | 210 | 5.2 | 8.7 | 0.00 | 0.00 | 0.00 | 84 | 1003.6 |